Date,TemperatureHighF,TemperatureAvgF,TemperatureLowF,DewpointHighF,DewpointAvgF,DewpointLowF,HumidityHigh,HumidityAvg,HumidityLow,PressureMaxIn,PressureMinIn,WindSpeedMaxMPH,WindSpeedAvgMPH,GustSpeedMaxMPH,PrecipitationSumIn
2013-1-23,71.0,59.3,40.0,30.0,25.0,20.0,48,28,17,30.42,30.24,2,0,8,0.00
2013-1-24,72.0,55.7,40.0,37.0,30.0,23.0,54,39,23,30.36,30.18,4,0,8,0.00
2013-1-25,64.0,55.8,50.0,47.0,42.2,37.0,74,60,45,30.32,30.14,2,0,6,0.00
2013-1-26,68.0,57.4,49.0,51.0,46.3,42.0,82,67,47,30.18,29.98,7,1,12,0.00
2013-1-27,66.0,56.8,50.0,50.0,46.7,43.0,88,71,47,30.11,29.97,7,2,15,0.00
2013-1-28,67.0,55.3,46.0,44.0,40.3,36.0,86,60,34,30.03,29.82,10,4,28,0.00
2013-1-29,51.0,42.2,38.0,39.0,27.7,20.0,90,58,38,30.10,29.85,15,9,38,0.00
2013-1-30,52.0,42.8,34.0,27.0,20.8,14.0,67,44,23,30.31,30.09,11,3,31,0.00
2013-1-31,59.0,47.7,30.0,28.0,25.1,21.0,69,42,28,30.35,30.19,3,0,8,0.00
2013-2-1,64.0,47.6,32.0,27.0,24.2,20.0,64,43,21,30.33,30.15,4,1,10,0.00
2013-2-2,69.0,52.8,37.0,26.0,23.2,21.0,52,34,17,30.41,30.24,6,2,13,0.00
2013-2-3,64.0,53.0,42.0,37.0,26.0,21.0,51,36,24,30.33,29.98,5,0,10,0.00
2013-2-4,66.0,57.1,51.0,40.0,36.8,34.0,62,47,35,30.11,29.96,6,1,14,0.00
2013-2-5,68.0,54.3,40.0,38.0,34.7,31.0,75,50,28,30.12,29.94,6,1,12,0.00
2013-2-6,67.0,53.6,45.0,37.0,34.7,33.0,63,50,32,30.04,29.92,6,2,16,0.00
2013-2-7,67.0,56.3,44.0,38.0,33.2,27.0,70,44,24,30.16,30.02,4,1,10,0.00
2013-2-8,71.0,57.0,45.0,35.0,31.5,24.0,58,40,17,30.15,29.82,10,3,20,0.00
2013-2-9,63.0,51.9,43.0,32.0,25.7,18.0,50,37,18,29.99,29.72,15,5,34,0.00
2013-2-10,55.0,45.3,36.0,25.0,22.5,18.0,61,42,23,30.06,29.91,8,2,16,0.00
2013-2-11,62.0,50.7,33.0,34.0,20.7,17.0,63,32,20,30.06,29.85,7,2,15,0.00
2013-2-12,53.0,45.7,36.0,37.0,24.2,13.0,84,48,21,30.17,29.98,7,4,17,0.00
2013-2-13,56.0,46.6,30.0,22.0,19.2,15.0,56,35,22,30.24,30.05,6,2,12,0.00
2013-2-14,63.0,48.2,31.0,25.0,21.1,15.0,58,36,22,30.21,29.99,6,1,13,0.00
2013-2-15,58.0,47.1,38.0,34.0,28.9,20.0,72,50,37,30.39,30.16,5,1,11,0.00
2013-2-16,62.0,49.4,32.0,28.0,23.5,20.0,76,40,21,30.47,30.19,2,0,7,0.00
2013-2-17,69.0,55.5,33.0,23.0,18.7,14.0,60,27,12,30.20,29.80,9,3,21,0.00
2013-2-18,65.0,57.4,47.0,21.0,17.1,13.0,33,21,13,30.11,29.90,8,4,21,0.00
2013-2-19,59.0,49.8,41.0,49.0,33.2,15.0,96,60,23,30.09,29.89,7,2,20,0.00
2013-2-20,62.0,50.0,39.0,46.0,36.3,26.0,95,65,26,29.89,29.54,15,6,42,0.00
2013-2-21,52.0,41.5,32.0,31.0,28.2,25.0,83,61,39,30.04,29.83,11,6,28,0.00
2013-2-22,56.0,45.5,34.0,30.0,28.6,27.0,82,54,32,30.10,29.94,9,-4,19,0.00
2013-2-23,60.0,48.7,35.0,29.0,25.9,21.0,67,42,27,30.14,29.82,7,1,14,0.00
2013-2-24,62.0,48.3,36.0,30.0,24.7,16.0,59,41,20,29.96,29.59,16,6,39,0.00
2013-2-25,54.0,42.4,31.0,23.0,18.0,-99.9,61,40,25,30.15,29.95,10,3,22,0.00
2013-2-26,65.0,50.9,39.0,22.0,15.6,6.0,42,27,11,30.08,29.79,12,5,29,0.00
2013-2-27,56.0,45.8,33.0,22.0,14.0,9.0,44,28,18,30.32,30.08,7,3,18,0.00
2013-2-28,59.0,46.2,34.0,25.0,20.5,15.0,62,38,18,30.37,30.22,5,1,11,0.00
2013-3-1,66.0,52.6,39.0,22.0,18.1,14.0,40,26,16,30.40,30.24,8,1,17,0.00
2013-3-2,70.0,56.0,38.0,28.0,22.9,20.0,49,29,16,30.46,30.21,4,1,10,0.00
2013-3-3,81.0,63.0,41.0,27.0,18.6,7.0,52,23,6,30.22,29.87,9,4,21,0.00
2013-3-4,79.0,65.9,53.0,35.0,23.6,11.0,31,21,9,30.06,29.76,14,5,31,0.00
2013-3-5,66.0,54.2,43.0,34.0,30.9,27.0,62,42,27,30.38,30.06,10,5,20,0.00
2013-3-6,78.0,61.9,49.0,32.0,30.3,29.0,46,32,17,30.24,29.95,7,2,15,0.00
2013-3-7,78.0,66.3,53.0,32.0,29.3,24.0,43,26,14,30.07,29.89,8,3,15,0.00
2013-3-8,70.0,63.5,57.0,49.0,41.0,27.0,58,45,23,30.01,29.82,9,3,25,0.00
2013-3-9,63.0,51.8,45.0,41.0,32.8,25.0,74,50,27,30.03,29.84,15,9,33,0.00
2013-3-10,57.0,47.6,37.0,34.0,31.0,29.0,82,55,34,30.19,30.01,10,2,18,0.00
2013-3-11,66.0,53.0,39.0,30.0,26.0,22.0,53,37,19,30.23,30.01,8,3,19,0.00
2013-3-12,73.0,59.1,40.0,31.0,24.9,22.0,51,29,16,30.27,30.09,11,4,20,0.00
2013-3-13,78.0,61.5,46.0,32.0,26.8,18.0,50,30,11,30.38,30.15,7,1,13,0.00
2013-3-14,81.0,63.0,45.0,29.0,23.1,15.0,43,25,9,30.35,30.13,5,0,9,0.00
2013-3-15,84.0,66.7,48.0,32.0,20.8,11.0,46,21,7,30.21,29.93,6,1,12,0.00
2013-3-16,85.0,71.4,55.0,26.0,19.9,9.0,28,15,6,29.96,29.74,12,4,25,0.00
2013-3-17,80.0,69.9,58.0,27.0,22.3,18.0,30,17,11,29.93,29.72,16,7,35,0.00
2013-3-18,77.0,67.4,58.0,33.0,24.8,17.0,30,21,11,30.06,29.89,10,4,23,0.00
2013-3-19,78.0,65.8,52.0,28.0,24.9,21.0,34,22,13,30.12,29.91,10,4,19,0.00
2013-3-20,72.0,61.9,51.0,41.0,35.8,28.0,58,39,26,30.27,29.92,12,4,21,0.00
2013-3-21,80.0,68.0,56.0,40.0,30.6,20.0,47,28,11,29.93,29.66,14,5,30,0.00
2013-3-22,79.0,67.9,56.0,35.0,30.5,26.0,40,26,17,29.85,29.63,15,6,31,0.00
2013-3-23,73.0,64.5,54.0,34.0,22.7,3.0,40,22,9,30.01,29.77,20,9,44,0.00
2013-3-24,64.0,50.5,35.0,18.0,11.9,1.0,39,22,13,30.20,29.87,10,5,21,0.00
2013-3-25,62.0,50.7,39.0,21.0,17.4,11.0,38,27,18,30.22,29.95,12,6,22,0.00
2013-3-26,71.0,53.7,41.0,26.0,19.3,-99.9,43,30,16,30.30,30.00,13,6,22,0.00
2013-3-27,78.0,64.0,49.0,34.0,27.9,23.0,44,27,15,30.13,29.96,8,3,16,0.00
2013-3-28,81.0,68.3,55.0,37.0,31.3,27.0,38,26,16,30.15,29.99,7,2,16,0.00
2013-3-29,83.0,71.6,59.0,37.0,27.5,21.0,34,21,11,30.16,29.98,8,3,18,0.00
2013-3-30,83.0,70.8,54.0,32.0,25.5,-99.9,38,20,11,30.14,29.94,10,3,21,0.00
2013-3-31,81.0,70.6,56.0,35.0,30.5,26.0,41,24,14,30.08,29.92,8,2,14,0.00
2013-4-1,83.0,70.5,57.0,38.0,29.0,15.0,48,24,9,30.06,29.84,9,4,19,0.00
2013-4-2,81.0,70.0,57.0,33.0,25.7,16.0,38,21,9,29.97,29.75,13,5,24,0.00
2013-4-3,74.0,60.5,46.0,43.0,36.7,18.0,75,45,15,30.13,29.91,9,4,15,0.00
2013-4-4,79.0,65.2,50.0,39.0,31.4,21.0,65,33,12,30.23,30.03,7,2,14,0.00
2013-4-5,86.0,72.0,56.0,34.0,22.1,-99.9,37,19,7,30.10,29.84,10,5,19,0.00
2013-4-6,83.0,72.5,60.0,35.0,29.7,22.0,34,22,11,30.02,29.83,10,5,23,0.00
2013-4-7,83.0,72.8,61.0,33.0,28.4,22.0,31,20,11,29.95,29.72,11,6,25,0.00
2013-4-8,85.0,73.5,64.0,34.0,27.5,18.0,33,19,9,29.79,29.47,14,7,33,0.00
2013-4-9,72.0,60.0,52.0,41.0,32.2,25.0,63,37,18,29.90,29.50,16,9,34,0.00
2013-4-10,66.0,57.0,48.0,35.0,30.9,25.0,60,39,22,29.98,29.83,12,6,29,0.00
2013-4-11,74.0,59.7,44.0,32.0,26.5,22.0,57,31,14,29.98,29.77,9,4,17,0.00
2013-4-12,80.0,66.5,53.0,32.0,25.6,20.0,38,23,11,29.92,29.74,7,3,16,0.00
2013-4-13,83.0,71.3,59.0,30.0,26.2,22.0,29,19,11,29.85,29.68,11,4,28,0.00
2013-4-14,82.0,71.6,62.0,34.0,28.0,24.0,29,20,12,29.83,29.66,15,10,36,0.00
2013-4-15,84.0,73.2,62.0,36.0,28.3,21.0,37,21,10,29.87,29.71,15,8,30,0.00
2013-4-16,86.0,74.1,60.0,35.0,25.4,14.0,31,18,7,29.91,29.72,11,6,22,0.00
2013-4-17,81.0,69.6,58.0,35.0,26.2,16.0,33,21,9,29.94,29.65,20,9,46,0.00
2013-4-18,67.0,56.8,47.0,29.0,22.2,10.0,47,29,12,30.19,29.94,10,6,23,0.00
2013-4-19,68.0,54.9,41.0,22.0,13.2,4.0,30,20,8,30.32,30.04,10,4,20,0.00
2013-4-20,80.0,64.0,43.0,25.0,16.1,7.0,44,19,6,30.06,29.81,14,5,30,0.00
2013-4-21,82.0,69.8,52.0,29.0,22.0,16.0,36,18,9,30.14,29.94,8,3,19,0.00
2013-4-22,88.0,74.0,57.0,34.0,20.4,12.0,40,15,6,30.05,29.80,10,4,21,0.00
2013-4-23,87.0,74.4,60.0,34.0,20.9,13.0,36,15,7,30.04,29.76,14,6,26,0.00
2013-4-24,77.0,60.0,42.0,36.0,32.8,29.0,63,39,17,30.24,29.98,13,8,22,0.00
2013-4-25,85.0,69.7,56.0,45.0,35.1,15.0,46,32,8,30.14,29.86,11,5,23,0.00
2013-4-26,83.0,72.0,61.0,32.0,23.6,13.0,32,18,8,30.16,29.97,10,4,20,0.00
2013-4-27,85.0,71.3,55.0,38.0,27.1,13.0,48,22,7,30.19,29.95,8,2,17,0.00
2013-4-28,86.0,73.3,57.0,46.0,33.8,25.0,44,26,11,30.06,29.83,6,2,13,0.00
2013-4-29,90.0,75.1,60.0,47.0,29.3,10.0,52,24,5,29.94,29.72,8,4,16,0.00
2013-4-30,91.0,79.7,66.0,30.0,20.8,13.0,23,12,6,29.85,29.71,11,5,27,0.00
2013-5-1,88.0,78.9,70.0,30.0,23.1,12.0,21,13,6,29.99,29.79,10,5,22,0.00
2013-5-2,70.0,57.5,48.0,41.0,32.6,26.0,62,40,23,30.44,29.99,15,10,29,0.00
2013-5-3,70.0,56.1,42.0,29.0,24.4,18.0,58,33,15,30.47,30.03,9,6,17,0.00
2013-5-4,84.0,67.3,49.0,29.0,24.0,18.0,39,21,12,30.05,29.83,13,3,22,0.00
2013-5-5,84.0,72.6,60.0,34.0,28.4,24.0,28,20,14,30.13,29.88,15,6,26,0.00
2013-5-6,82.0,73.2,38.0,43.0,33.8,9.0,41,24,15,30.04,29.90,12,6,24,0.00
2013-5-7,81.0,73.2,65.0,38.0,33.3,27.0,33,24,14,30.08,29.88,10,6,23,0.00
2013-5-8,73.0,68.6,63.0,37.0,34.2,31.0,36,28,21,30.07,29.94,9,6,19,0.00
2013-5-9,81.0,74.7,65.0,38.0,29.9,23.0,33,20,12,30.03,29.89,9,5,22,0.00
2013-5-10,78.0,66.0,56.0,55.0,40.1,-99.9,89,44,21,30.20,29.98,15,5,34,0.00
2013-5-11,76.0,63.5,51.0,50.0,45.7,-99.9,85,57,26,30.29,30.15,12,6,26,0.00
2013-5-12,79.0,68.3,53.0,46.0,40.8,34.0,67,40,21,30.33,30.11,10,5,21,0.00
2013-5-13,83.0,71.4,57.0,43.0,37.0,29.0,56,31,14,30.29,30.07,10,3,17,0.00
2013-5-14,85.0,72.5,62.0,48.0,43.7,35.0,54,37,17,30.17,29.94,10,3,21,0.00
2013-5-15,92.0,79.0,65.0,47.0,36.6,29.0,46,25,11,30.04,29.83,12,6,32,0.00
2013-5-16,92.0,76.7,73.0,38.0,14.8,-99.9,27,16,8,30.01,29.81,10,4,22,0.00
2013-5-17,92.0,79.3,67.0,39.0,27.1,-99.9,30,18,9,29.97,29.82,7,3,20,0.00
2013-5-18,88.0,80.7,70.0,36.0,26.5,15.0,26,15,7,30.00,29.81,11,7,25,0.00
2013-5-19,88.0,78.3,67.0,36.0,27.9,16.0,29,17,7,29.97,29.76,12,6,23,0.00
2013-5-20,89.0,79.5,66.0,39.0,29.8,20.0,34,18,8,29.95,29.72,11,6,26,0.00
2013-5-21,87.0,75.4,62.0,40.0,30.0,19.0,37,20,9,30.01,29.83,9,4,23,0.00
2013-5-22,92.0,79.0,63.0,34.0,24.5,18.0,33,15,7,29.94,29.78,8,3,18,0.00
2013-5-23,96.0,82.0,66.0,54.0,33.2,24.0,53,20,8,29.98,29.77,15,4,27,0.00
2013-5-24,93.0,79.4,66.0,54.0,48.7,38.0,64,38,17,30.07,29.86,12,4,22,0.00
2013-5-25,95.0,82.6,70.0,58.0,43.7,21.0,62,32,7,30.04,29.86,10,4,18,0.00
2013-5-26,94.0,83.3,67.0,54.0,34.3,13.0,55,22,7,30.06,29.86,8,5,17,0.00
2013-5-27,92.0,81.6,67.0,34.0,22.5,15.0,28,12,6,29.97,29.77,9,3,21,0.00
2013-5-28,93.0,82.1,69.0,35.0,21.9,13.0,26,12,6,29.81,29.61,11,5,25,0.00
2013-5-29,88.0,80.2,72.0,37.0,29.1,13.0,25,16,8,29.81,29.65,12,8,26,0.00
2013-5-30,92.0,82.1,72.0,46.0,36.5,28.0,30,20,12,29.92,29.76,10,6,21,0.00
2013-5-31,95.0,85.1,70.0,42.0,33.1,-99.9,36,17,11,29.96,29.77,10,5,24,0.00
2013-6-1,96.0,86.7,72.0,45.0,29.7,21.0,27,14,8,29.98,29.84,14,6,28,0.00
2013-6-2,96.0,80.4,71.0,62.0,52.1,45.0,62,39,22,30.06,29.78,16,9,30,0.00
2013-6-3,97.0,81.3,67.0,59.0,48.0,18.0,75,40,7,30.00,29.78,13,5,23,0.00
2013-6-4,98.0,86.4,72.0,51.0,36.9,24.0,42,21,8,29.97,29.81,10,4,21,0.00
2013-6-5,97.0,86.4,73.0,48.0,33.9,21.0,36,18,7,29.96,29.79,10,3,20,0.00
2013-6-6,93.0,81.8,71.0,52.0,46.3,29.0,51,31,17,29.99,29.83,13,6,25,0.00
2013-6-7,93.0,79.5,69.0,61.0,54.9,42.0,75,46,19,30.02,29.78,20,7,42,0.00
2013-6-8,99.0,82.9,67.0,57.0,45.8,25.0,68,35,9,29.93,29.74,12,4,24,0.00
2013-6-9,99.0,88.6,77.0,53.0,44.9,24.0,44,24,9,29.99,29.79,12,5,25,0.00
2013-6-10,102.0,89.5,76.0,53.0,47.7,36.0,44,26,12,30.03,29.88,11,5,20,0.00
2013-6-11,103.0,90.4,75.0,51.0,42.1,30.0,41,21,8,30.02,29.85,10,5,19,0.00
2013-6-12,105.0,90.7,78.0,55.0,43.6,32.0,42,22,9,30.06,29.87,12,6,22,0.00
2013-6-13,97.0,85.4,76.0,62.0,55.8,45.0,61,39,17,30.08,29.91,15,8,27,0.00
2013-6-14,94.0,80.8,71.0,64.0,57.9,51.0,70,48,24,30.07,29.86,16,4,32,0.00
2013-6-15,98.0,84.4,70.0,63.0,54.4,42.0,76,41,15,30.09,29.90,10,3,18,0.00
2013-6-16,99.0,87.8,75.0,57.0,50.2,44.0,50,30,16,30.11,29.93,10,4,18,0.00
2013-6-17,99.0,87.6,76.0,60.0,52.5,44.0,50,32,16,30.04,29.88,15,4,27,0.00
2013-6-18,98.0,85.0,71.0,62.0,55.1,45.0,68,40,17,30.08,29.89,10,6,21,0.00
2013-6-19,101.0,90.2,79.0,62.0,49.4,31.0,52,30,9,30.00,29.79,12,6,24,0.00
2013-6-20,100.0,86.9,79.0,55.0,50.1,35.0,41,30,11,30.04,29.88,10,6,19,0.00
2013-6-22,100.0,94.3,82.0,59.0,41.8,31.0,46,18,10,30.07,29.83,10,5,24,0.00
2013-6-23,99.0,90.2,77.0,56.0,39.9,30.0,47,20,10,30.02,29.82,10,4,16,0.00
2013-6-24,98.0,91.6,80.0,51.0,41.5,35.0,26,18,13,30.00,29.84,8,4,19,0.00
2013-6-25,99.0,90.2,78.0,53.0,37.9,24.0,39,17,9,30.05,29.91,9,4,23,0.00
2013-6-26,102.0,86.6,75.0,35.0,26.9,18.0,20,12,5,30.09,29.94,7,3,19,0.00
2013-6-27,105.0,91.4,77.0,42.0,27.2,18.0,19,11,5,30.09,29.94,10,2,18,0.00
2013-6-28,100.0,89.5,78.0,52.0,42.4,37.0,39,21,12,30.19,30.02,9,4,17,0.00
2013-6-29,101.0,88.5,74.0,52.0,44.6,35.0,39,24,11,30.14,29.91,12,4,24,0.00
2013-6-30,98.0,87.8,75.0,63.0,49.7,43.0,65,29,16,30.07,29.85,16,6,27,0.00
2013-7-1,84.0,75.3,67.0,64.0,59.8,55.0,85,61,39,30.24,30.01,15,8,30,0.00
2013-7-2,88.0,76.7,65.0,65.0,55.8,48.0,86,54,25,30.29,30.04,13,4,25,0.00
2013-7-3,94.0,80.7,68.0,62.0,54.6,45.0,80,45,20,30.19,29.88,13,4,33,0.00
2013-7-4,95.0,82.7,71.0,58.0,53.0,45.0,62,39,19,30.01,29.81,10,3,19,0.00
2013-7-5,98.0,87.6,74.0,57.0,51.0,43.0,54,30,16,29.97,29.79,9,3,16,0.00
2013-7-6,100.0,87.7,77.0,61.0,55.4,46.0,58,36,16,29.94,29.76,8,3,17,0.00
2013-7-7,101.0,90.6,80.0,57.0,52.0,46.0,43,28,17,29.98,29.84,13,6,25,0.00
2013-7-8,97.0,86.4,78.0,58.0,53.9,46.0,47,34,18,30.09,29.93,12,6,25,0.00
2013-7-9,98.0,87.7,77.0,62.0,56.2,46.0,56,37,17,30.13,29.92,13,6,25,0.00
2013-7-10,96.0,85.9,76.0,62.0,55.7,-99.9,61,39,23,30.15,29.94,10,6,18,0.00
2013-7-11,97.0,87.5,79.0,63.0,57.7,53.0,56,37,23,30.06,29.94,11,4,21,0.00
2013-7-12,100.0,87.8,77.0,62.0,55.0,48.0,58,35,18,30.05,29.88,12,4,23,0.00
2013-7-13,98.0,87.5,75.0,60.0,55.0,45.0,58,35,20,30.06,29.86,13,4,22,0.00
2013-7-14,101.0,88.9,77.0,62.0,53.5,47.0,57,32,18,30.04,29.83,13,4,22,0.00
2013-7-15,85.0,76.0,71.0,66.0,60.1,55.0,68,58,48,30.14,29.92,14,8,29,0.00
2013-7-16,87.0,76.7,68.0,58.0,55.0,49.0,69,49,28,30.17,30.04,12,6,20,0.00
2013-7-17,76.0,72.0,69.0,66.0,60.0,55.0,83,67,49,30.24,30.15,15,8,25,0.00
2013-7-18,77.0,69.4,66.0,68.0,65.1,62.0,94,86,68,30.23,30.10,10,4,18,0.00
2013-7-19,82.0,73.7,67.0,68.0,65.2,63.0,95,76,54,30.14,29.97,9,4,15,0.00
2013-7-20,86.0,77.1,68.0,67.0,62.5,-99.9,90,64,42,30.06,29.91,11,4,20,0.00
2013-7-21,92.0,80.8,71.0,64.0,60.9,55.0,77,53,30,30.04,29.88,8,3,15,0.00
2013-7-22,96.0,80.4,73.0,66.0,62.6,55.0,74,57,28,30.05,29.89,11,5,25,0.00
2013-7-23,93.0,80.0,72.0,66.0,62.5,60.0,71,57,34,30.06,29.87,9,6,18,0.00
2013-7-24,93.0,81.0,71.0,68.0,63.9,59.0,89,60,32,30.09,29.91,15,4,29,0.00
2013-7-25,89.0,77.0,66.0,68.0,65.2,63.0,95,70,44,30.18,30.04,12,4,23,0.00
2013-7-26,94.0,81.7,75.0,69.0,65.5,61.0,82,60,35,30.17,30.05,14,4,24,0.00
2013-7-27,85.0,75.5,67.0,69.0,65.8,63.0,94,73,49,30.23,29.99,10,5,17,0.00
2013-7-28,91.0,78.3,69.0,67.0,64.2,59.0,87,64,35,30.06,29.88,16,3,28,0.00
2013-7-29,80.0,80.0,80.0,62.0,62.0,62.0,55,55,55,29.95,29.95,0,0,0,0.00
2013-7-30,80.0,80.0,80.0,62.0,61.9,51.0,55,55,37,29.95,29.95,0,0,0,0.00
2013-7-31,80.0,80.0,80.0,62.0,62.0,62.0,55,55,55,29.95,29.95,0,0,0,0.00
2013-8-1,80.0,80.0,80.0,62.0,62.0,62.0,55,55,55,29.95,29.95,0,0,0,0.00
2013-8-2,96.0,86.4,80.0,64.0,60.0,54.0,55,43,25,30.08,29.93,7,2,17,0.00
2013-8-3,97.0,86.9,78.0,63.0,58.5,52.0,56,40,24,30.08,29.94,7,3,14,0.00
2013-8-4,99.0,87.6,78.0,62.0,57.0,50.0,58,38,20,30.09,29.91,8,3,19,0.00
2013-8-5,96.0,86.4,73.0,67.0,56.9,50.0,82,39,21,30.07,29.90,12,4,20,0.00
2013-8-6,94.0,83.5,75.0,62.0,57.1,51.0,62,43,24,30.07,29.93,10,6,20,0.00
2013-8-7,90.0,82.2,74.0,61.0,57.6,52.0,61,44,28,30.09,29.92,11,5,21,0.00
2013-8-8,95.0,84.5,71.0,60.0,52.7,44.0,68,37,18,30.04,29.89,10,2,19,0.00
2013-8-9,97.0,85.5,72.0,56.0,49.7,44.0,51,31,17,30.06,29.93,9,3,17,0.00
2013-8-10,89.0,80.4,76.0,64.0,59.7,54.0,62,50,36,30.24,30.06,13,6,22,0.00
2013-8-11,93.0,80.9,66.0,65.0,59.6,51.0,88,53,24,30.21,29.99,14,6,29,0.00
2013-8-20,95.0,82.3,75.0,60.0,46.2,-99.9,59,33,19,30.06,29.92,8,4,15,0.00
2013-8-21,95.0,85.0,74.0,60.0,50.3,37.0,59,33,18,30.09,29.97,10,5,17,0.00
2013-8-22,93.0,84.4,70.0,58.0,49.6,40.0,59,32,16,30.15,29.97,10,5,17,0.00
2013-8-23,93.0,81.3,74.0,59.0,56.3,48.0,57,44,23,30.10,29.93,12,6,26,0.00
2013-8-24,89.0,78.9,72.0,62.0,55.7,-99.9,65,48,32,30.11,29.97,10,4,20,0.00
2013-8-25,93.0,84.3,73.0,62.0,56.7,52.0,69,41,25,30.19,30.04,11,6,22,0.00
2013-8-26,92.0,83.4,74.0,59.0,56.1,52.0,58,41,27,30.20,30.03,11,7,21,0.00
2013-8-27,85.0,78.4,74.0,62.0,59.9,57.0,63,53,42,30.15,30.06,10,7,17,0.00
2013-10-2,88.0,75.6,63.0,48.0,39.6,34.0,46,29,18,30.03,29.88,9,3,14,0.00
2013-10-3,86.0,74.4,63.0,49.0,40.9,30.0,56,33,14,29.98,29.81,9,3,18,0.00
2013-10-4,85.0,75.7,66.0,50.0,43.8,35.0,54,34,18,29.98,29.86,10,5,22,0.00
2013-10-5,75.0,65.1,54.0,44.0,30.8,26.0,45,28,20,30.21,29.98,11,6,22,0.00
2013-10-6,77.0,62.5,48.0,39.0,31.9,27.0,52,33,18,30.30,30.14,8,2,14,0.00
2013-10-7,81.0,62.6,48.0,39.0,35.3,29.0,62,41,16,30.29,30.06,6,2,11,0.00
2013-10-8,85.0,73.6,51.0,45.0,39.0,31.0,62,31,18,30.09,29.86,7,3,13,0.00
2013-10-9,85.0,73.2,59.0,46.0,42.0,38.0,55,34,19,30.00,29.83,7,2,16,0.00
2013-10-10,83.0,72.0,64.0,50.0,41.5,-99.9,60,36,17,29.94,29.79,14,6,36,0.00
2013-10-18,78.0,65.6,51.0,39.0,31.1,25.0,54,30,15,30.13,29.94,9,3,16,0.00
2013-10-19,74.0,55.8,45.0,40.0,33.8,-99.9,69,48,25,30.26,30.01,8,2,13,0.00
2013-10-20,78.0,62.8,45.0,40.0,33.4,25.0,71,38,14,30.06,29.85,8,2,18,0.00
2013-10-21,73.0,61.2,48.0,42.0,35.6,26.0,55,39,27,30.19,29.95,9,3,17,0.00
2013-10-22,76.0,61.1,46.0,45.0,41.2,38.0,75,51,26,30.29,30.09,4,1,9,0.00
2013-10-23,80.0,62.9,47.0,42.0,39.2,36.0,67,44,22,30.22,24.12,5,1,9,0.00
2013-10-24,83.0,67.7,52.0,47.0,39.3,-99.9,56,40,26,30.20,29.99,10,4,21,0.00
2013-10-25,80.0,70.3,58.0,49.0,45.9,42.0,70,44,27,30.21,30.02,10,5,16,0.00
2013-10-26,78.0,62.7,53.0,50.0,43.4,-99.9,82,55,22,30.24,30.13,10,5,18,0.00
2013-10-27,78.0,63.9,50.0,49.0,45.1,42.0,76,53,33,30.22,29.92,5,1,9,0.00
2013-10-28,79.0,66.5,56.0,47.0,38.1,-99.9,71,41,17,30.02,29.90,8,3,16,0.00
2013-10-29,74.0,68.3,63.0,40.0,35.9,30.0,38,30,21,30.07,29.93,5,1,11,0.00
2013-10-30,70.0,64.9,61.0,56.0,46.4,36.0,65,52,34,30.02,29.86,15,4,39,0.00
2013-11-14,69.0,56.6,44.0,49.0,45.4,42.0,93,68,43,30.19,29.95,6,2,11,0.00
2013-11-15,71.0,59.6,50.0,53.0,48.8,44.0,89,69,47,30.02,29.80,10,5,25,0.00
2013-11-16,75.0,63.3,57.0,53.0,47.1,-99.9,84,60,34,29.91,29.74,13,6,26,0.00
2013-11-17,71.0,61.6,54.0,50.0,45.1,42.0,76,56,37,30.14,29.91,13,4,25,0.26
2013-11-18,73.0,60.1,53.0,46.0,43.3,41.0,69,55,35,30.22,30.08,5,1,10,0.00
2013-11-19,75.0,59.7,47.0,47.0,43.7,39.0,75,57,34,30.12,29.90,6,2,13,0.00
2013-11-20,72.0,62.2,53.0,48.0,45.3,42.0,71,55,37,29.99,29.84,8,2,15,0.00
2013-11-21,74.0,63.8,51.0,47.0,44.1,41.0,77,50,32,30.07,29.94,7,2,12,0.00
2013-11-22,63.0,42.5,36.0,42.0,33.4,29.0,80,71,45,30.40,30.04,15,11,29,0.00
2013-11-23,40.0,36.1,32.0,34.0,29.3,-99.9,94,80,72,30.48,30.36,14,9,26,0.00
2013-11-24,36.0,33.0,30.0,32.0,29.7,27.0,96,88,79,30.42,30.26,14,5,23,0.00
2013-11-25,49.0,39.2,35.0,38.0,34.2,32.0,91,82,65,30.37,30.17,7,4,15,0.00
2013-11-26,55.0,42.8,31.0,34.0,31.5,29.0,96,68,41,30.51,30.38,6,2,10,0.00